Change the Weather History Date:

Tuesday, May 6, 2014

  Actual Average (KHFF) Record (KHFF)
Temperature  
Mean Temperature 74 °F -  
Max Temperature 90 °F 78 °F 88 °F (2014)
Min Temperature 58 °F 58 °F 42 °F (2005)
Cooling Degree Days 9    
Growing Degree Days 24 (Base 50)    
Moisture  
Dew Point 55 °F    
Average Humidity 53    
Maximum Humidity 96    
Minimum Humidity 22    
Precipitation  
Precipitation 0.00 in - - ()
Sea Level Pressure  
Sea Level Pressure 29.91 in    
Wind  
Wind Speed 4 mph (West)    
Max Wind Speed 9 mph    
Max Gust Speed -    
Visibility 10 miles    
Events      
Averages and records for this station are not official NWS values.
T = Trace of Precipitation, MM = Missing Value Source: NWS Daily Summary

Daily Weather History Graph

Daily Weather History Graph

Search for Another Location

Airport or City:

Trip Planner

Search our weather history database for the weather conditions in past years. The results will help you decide how hot, cold, wet, or windy it might be!

Date:

Astronomy

May. 06, 2014 Rise Set
Actual Time 6:23 AM EDT 8:08 PM EDT
Civil Twilight 5:56 AM EDT 8:35 PM EDT
Nautical Twilight 5:23 AM EDT 9:08 PM EDT
Astronomical Twilight 4:48 AM EDT 9:44 PM EDT
Moon 12:35 PM EDT (5/6) 1:28 AM EDT (5/6)
Length of Visible Light 14h 39m
Length of Day
13h 44m
Waxing Crescent, 46% of the Moon is Illuminated
May 6
Waxing Crescent
May 6
First Quarter
May 14
Full
May 21
Last Quarter
May 28
New

Hourly Weather History & Observations

Time (EDT) Temp. Heat Index Dew Point Humidity Pressure Visibility Wind Dir Wind Speed Gust Speed Precip Events Conditions
12:15 AM 67.1 °F - 61.0 °F 81% 29.86 in 10.0 mi South 6.9 mph - N/A   Unknown
12:35 AM 66.4 °F - 61.0 °F 83% 29.85 in 10.0 mi South 5.8 mph - N/A   Unknown
12:55 AM 66.2 °F - 61.0 °F 83% 29.85 in 10.0 mi South 5.8 mph - N/A   Unknown
1:15 AM 65.5 °F - 61.0 °F 85% 29.86 in 10.0 mi Calm Calm - N/A   Unknown
1:35 AM 65.3 °F - 61.0 °F 86% 29.85 in 10.0 mi South 3.5 mph - N/A   Unknown
1:55 AM 64.4 °F - 60.8 °F 88% 29.85 in 10.0 mi SSW 4.6 mph - N/A   Unknown
2:15 AM 62.8 °F - 60.4 °F 92% 29.84 in 10.0 mi Calm Calm - N/A   Unknown
2:35 AM 62.6 °F - 60.3 °F 92% 29.84 in 10.0 mi Calm Calm - N/A   Unknown
2:55 AM 62.2 °F - 60.3 °F 93% 29.84 in 10.0 mi Calm Calm - N/A   Unknown
3:15 AM 61.7 °F - 60.3 °F 95% 29.84 in 10.0 mi Calm Calm - N/A   Unknown
3:35 AM 63.1 °F - 60.1 °F 90% 29.84 in 10.0 mi South 3.5 mph - N/A   Unknown
7:55 AM 58.3 °F - 57.0 °F 96% 29.94 in 10.0 mi Calm Calm - N/A   Unknown
8:15 AM 59.2 °F - 56.7 °F 91% 29.94 in 10.0 mi Calm Calm - N/A   Unknown
8:35 AM 60.4 °F - 56.7 °F 87% 29.95 in 10.0 mi Calm Calm - N/A   Unknown
8:55 AM 62.6 °F - 57.0 °F 82% 29.95 in 10.0 mi NW 3.5 mph - N/A   Unknown
9:15 AM 64.6 °F - 57.9 °F 79% 29.96 in 10.0 mi NW 3.5 mph - N/A   Unknown
10:15 AM 70.2 °F - 59.2 °F 68% 29.96 in 10.0 mi Calm Calm - N/A   Unknown
10:35 AM 71.6 °F - 58.6 °F 64% 29.96 in 10.0 mi WNW 6.9 mph - N/A   Unknown
10:55 AM 73.8 °F - 59.4 °F 61% 29.96 in 10.0 mi West 3.5 mph - N/A   Unknown
11:15 AM 75.6 °F - 59.4 °F 57% 29.95 in 10.0 mi WNW 3.5 mph - N/A   Unknown
11:35 AM 77.7 °F - 60.3 °F 55% 29.95 in 10.0 mi WNW 3.5 mph - N/A   Unknown
11:55 AM 79.3 °F - 58.3 °F 48% 29.95 in 10.0 mi West 5.8 mph - N/A   Unknown
12:15 PM 81.0 °F 81.0 °F 57.4 °F 44% 29.95 in 10.0 mi WNW 6.9 mph - N/A   Unknown
12:35 PM 82.4 °F 81.8 °F 55.9 °F 40% 29.95 in 10.0 mi NW 5.8 mph - N/A   Unknown
12:55 PM 83.3 °F 82.3 °F 55.2 °F 38% 29.94 in 10.0 mi Calm Calm - N/A   Unknown
1:15 PM 84.4 °F 82.9 °F 54.0 °F 35% 29.94 in 10.0 mi WNW 6.9 mph - N/A   Unknown
1:35 PM 85.3 °F - 50.5 °F 30% 29.93 in 10.0 mi NNW 3.5 mph - N/A   Unknown
1:55 PM 85.6 °F - 50.5 °F 30% 29.93 in 10.0 mi West 6.9 mph - N/A   Unknown
2:15 PM 86.7 °F - 50.7 °F 29% 29.92 in 10.0 mi West 8.1 mph - N/A   Unknown
2:35 PM 87.4 °F - 51.4 °F 29% 29.92 in 10.0 mi WSW 8.1 mph - N/A   Unknown
2:55 PM 86.9 °F - 50.2 °F 28% 29.91 in 10.0 mi NW 3.5 mph - N/A   Unknown
3:15 PM 87.8 °F - 49.1 °F 26% 29.90 in 10.0 mi WSW 4.6 mph - N/A   Unknown
3:35 PM 88.3 °F - 50.2 °F 27% 29.90 in 10.0 mi West 5.8 mph - N/A   Unknown
4:15 PM 88.9 °F - 49.3 °F 26% 29.89 in 10.0 mi WSW 6.9 mph - N/A   Unknown
4:35 PM 88.7 °F - 50.0 °F 26% 29.88 in 10.0 mi West 5.8 mph - N/A   Unknown
4:55 PM 90.0 °F - 46.8 °F 22% 29.88 in 10.0 mi West 9.2 mph - N/A   Unknown
5:15 PM 89.6 °F - 46.6 °F 23% 29.88 in 10.0 mi West 9.2 mph - N/A   Unknown
5:35 PM 89.4 °F - 47.3 °F 23% 29.88 in 10.0 mi WSW 8.1 mph - N/A   Unknown
5:55 PM 88.9 °F - 47.1 °F 24% 29.88 in 10.0 mi West 6.9 mph - N/A   Unknown
6:15 PM 88.7 °F - 48.0 °F 24% 29.89 in 10.0 mi WSW 9.2 mph - N/A   Unknown
6:35 PM 87.8 °F - 48.7 °F 26% 29.89 in 10.0 mi West 5.8 mph - N/A   Unknown
6:55 PM 86.7 °F - 51.1 °F 29% 29.89 in 10.0 mi West 6.9 mph - N/A   Unknown
7:15 PM 85.1 °F - 52.3 °F 32% 29.89 in 10.0 mi Calm Calm - N/A   Unknown
7:35 PM 84.2 °F - 52.3 °F 33% 29.90 in 10.0 mi Calm Calm - N/A   Unknown
7:55 PM 82.9 °F 81.8 °F 53.2 °F 36% 29.90 in 10.0 mi Calm Calm - N/A   Unknown
8:15 PM 79.9 °F - 53.6 °F 40% 29.91 in 10.0 mi Calm Calm - N/A   Unknown
8:35 PM 78.8 °F - 54.1 °F 42% 29.92 in 10.0 mi Calm Calm - N/A   Unknown
8:55 PM 76.1 °F - 55.4 °F 49% 29.92 in 10.0 mi Calm Calm - N/A   Unknown
9:15 PM 74.8 °F - 55.2 °F 50% 29.93 in 10.0 mi Calm Calm - N/A   Unknown
9:35 PM 75.0 °F - 54.9 °F 49% 29.94 in 10.0 mi Calm Calm - N/A   Unknown
9:55 PM 74.1 °F - 55.8 °F 53% 29.94 in 10.0 mi Calm Calm - N/A   Unknown
10:15 PM 73.6 °F - 54.3 °F 51% 29.95 in 10.0 mi Calm Calm - N/A   Unknown
10:35 PM 74.5 °F - 53.1 °F 47% 29.95 in 10.0 mi SW 4.6 mph - N/A   Unknown
10:55 PM 74.3 °F - 52.5 °F 46% 29.95 in 10.0 mi SW 4.6 mph - N/A   Unknown
11:15 PM 75.2 °F - 51.8 °F 44% 29.95 in 10.0 mi WSW 3.5 mph - N/A   Unknown
11:55 PM 73.2 °F - 52.7 °F 48% 29.96 in 10.0 mi West 5.8 mph - N/A   Unknown